Multibeam Report for CON04_01


Ship Name: Concat
Chief Scientist: Geoghegan, Michael
Geological Survey of Ireland
Source Organization: Geological Survey of Ireland (GSI)
Start Date: 2004-03-22
End Date: 2004-03-26


View ISO Metadata

Visit the full NCEI Bathymetry Viewer


Multibeam Bathymetry

Cruise Details

Project: CON04_01
Instrument: Simrad EM1002

Data Quality

Number of Files: 151
Number of Records: 1976848
BATHYMETRY DATA Quantity Percentage
Number of Beams 501362218 100%
Number of Good Beams 383220642 76.44%
Number of Zero Beams 118141576 23.56%
Number of Flagged Beams 0 0%
AMPLITUDE DATA Quantity Percentage
Number of Beams 501362218 100%
Number of Good Beams 383220642 76.44%
Number of Zero Beams 118141576 23.56%
Number of Flagged Beams 0 0%
SIDESCAN DATA Quantity Percentage
Number of Pixels 2024289280 100%
Number of Good Pixels 1262916904 62.39%
Number of Zero Pixels 0 0%
Number of Flagged Pixels 761372376 37.61%

Navigation Totals

Total Time: 53.9655 hours
Total Track Length: 473.5425 km
Average Speed: 8.775 km/hr (4.7381 knots)

Cruise Bounds

Northern Extent: 53.4123
Southern Extent: 53.26941
Western Extent: -6.251072
Eastern Extent: -6.034054

Limits

Minimum Sonar Depth -0.39 Maximum Sonar Depth 1.79
Minimum Altitude -0.78 Maximum Altitude 31.15
Minimum Depth 0.14 Maximum Depth 33.26
Minimum Amplitude -64 Maximum Amplitude 17
Minimum Sidescan -64 Maximum Sidescan 19.5

File Information

Full Resolution Bathymetry as collected (raw): 150

Files File Size Description
0500_20040325_141611_raw.mb56.gz 54.33MB Simrad multibeam vendor format
0501_20040325_143026_raw.mb56.gz 1.45MB Simrad multibeam vendor format
0501_20040325_143604_raw.mb56.gz 413.65MB Simrad multibeam vendor format
0502_20040325_160049_raw.mb56.gz 50.01MB Simrad multibeam vendor format
0503_20040325_161116_raw.mb56.gz 276.17MB Simrad multibeam vendor format
0504_20040325_170430_raw.mb56.gz 255.16MB Simrad multibeam vendor format
0505_20040325_181808_raw.mb56.gz 42.34MB Simrad multibeam vendor format
0506_20040325_183523_raw.mb56.gz 147.11MB Simrad multibeam vendor format
0507_20040325_191534_raw.mb56.gz 241.33MB Simrad multibeam vendor format
0508_20040325_200104_raw.mb56.gz 346.24MB Simrad multibeam vendor format
0509_20040326_081059_raw.mb56.gz 27.52MB Simrad multibeam vendor format
0510_20040326_082445_raw.mb56.gz 146.49MB Simrad multibeam vendor format
0511_20040326_090937_raw.mb56.gz 33.16MB Simrad multibeam vendor format
0512_20040326_092250_raw.mb56.gz 20.83MB Simrad multibeam vendor format
0513_20040326_093554_raw.mb56.gz 62.35MB Simrad multibeam vendor format
0514_20040326_095356_raw.mb56.gz 8.64MB Simrad multibeam vendor format
0515_20040326_095626_raw.mb56.gz 49.86MB Simrad multibeam vendor format
0516_20040326_100629_raw.mb56.gz 16.42MB Simrad multibeam vendor format
0517_20040326_104650_raw.mb56.gz 61.98MB Simrad multibeam vendor format
0518_20040326_112855_raw.mb56.gz 9.94MB Simrad multibeam vendor format
0519_20040326_113430_raw.mb56.gz 73.04MB Simrad multibeam vendor format
0520_20040326_115710_raw.mb56.gz 26.70MB Simrad multibeam vendor format
0521_20040326_120510_raw.mb56.gz 21.20MB Simrad multibeam vendor format
0522_20040326_121227_raw.mb56.gz 34.86MB Simrad multibeam vendor format
0523_20040326_122806_raw.mb56.gz 15.96MB Simrad multibeam vendor format
0524_20040326_123939_raw.mb56.gz 20.22MB Simrad multibeam vendor format
0525_20040326_125011_raw.mb56.gz 19.00MB Simrad multibeam vendor format
0526_20040326_130049_raw.mb56.gz 11.35MB Simrad multibeam vendor format
0527_20040326_130522_raw.mb56.gz 13.34MB Simrad multibeam vendor format
0528_20040326_131244_raw.mb56.gz 12.71MB Simrad multibeam vendor format
0529_20040326_131824_raw.mb56.gz 0.93MB Simrad multibeam vendor format
0530_20040326_132741_raw.mb56.gz 68.48MB Simrad multibeam vendor format
0531_20040326_134512_raw.mb56.gz 53.94MB Simrad multibeam vendor format
0532_20040326_140553_raw.mb56.gz 16.33MB Simrad multibeam vendor format
0533_20040326_143458_raw.mb56.gz 108.65MB Simrad multibeam vendor format
0534_20040326_151529_raw.mb56.gz 217.65MB Simrad multibeam vendor format
0535_20040326_161212_raw.mb56.gz 318.89MB Simrad multibeam vendor format
0536_20040326_172241_raw.mb56.gz 343.80MB Simrad multibeam vendor format
0537_20040326_183409_raw.mb56.gz 144.57MB Simrad multibeam vendor format
0538_20040326_190310_raw.mb56.gz 233.02MB Simrad multibeam vendor format
0539_20040326_202224_raw.mb56.gz 333.76MB Simrad multibeam vendor format
0541_20040327_114744_raw.mb56.gz 101.78MB Simrad multibeam vendor format
0542_20040327_121447_raw.mb56.gz 7.33MB Simrad multibeam vendor format
0543_20040327_121929_raw.mb56.gz 43.15MB Simrad multibeam vendor format
0544_20040327_123444_raw.mb56.gz 21.46MB Simrad multibeam vendor format
0545_20040327_124104_raw.mb56.gz 149.08MB Simrad multibeam vendor format
0546_20040327_132505_raw.mb56.gz 116.39MB Simrad multibeam vendor format
0547_20040327_141026_raw.mb56.gz 74.92MB Simrad multibeam vendor format
0548_20040327_145116_raw.mb56.gz 3.70MB Simrad multibeam vendor format
0549_20040327_145444_raw.mb56.gz 1.45MB Simrad multibeam vendor format
0550_20040327_145708_raw.mb56.gz 2.92MB Simrad multibeam vendor format
0551_20040327_150010_raw.mb56.gz 3.68MB Simrad multibeam vendor format
0552_20040327_150332_raw.mb56.gz 2.77MB Simrad multibeam vendor format
0553_20040327_150623_raw.mb56.gz 4.24MB Simrad multibeam vendor format
0554_20040327_150932_raw.mb56.gz 2.46MB Simrad multibeam vendor format
0555_20040327_155302_raw.mb56.gz 80.12MB Simrad multibeam vendor format
0556_20040327_161852_raw.mb56.gz 185.94MB Simrad multibeam vendor format
0557_20040327_170942_raw.mb56.gz 98.07MB Simrad multibeam vendor format
0558_20040327_173849_raw.mb56.gz 61.11MB Simrad multibeam vendor format
0559_20040327_175750_raw.mb56.gz 58.00MB Simrad multibeam vendor format
0560_20040327_181803_raw.mb56.gz 73.86MB Simrad multibeam vendor format
0561_20040327_183519_raw.mb56.gz 132.15MB Simrad multibeam vendor format
0562_20040327_191417_raw.mb56.gz 21.03MB Simrad multibeam vendor format
0563_20040327_192416_raw.mb56.gz 238.80MB Simrad multibeam vendor format
0564_20040327_203045_raw.mb56.gz 87.72MB Simrad multibeam vendor format
0565_20040328_063532_raw.mb56.gz 89.28MB Simrad multibeam vendor format
0566_20040328_065947_raw.mb56.gz 90.58MB Simrad multibeam vendor format
0567_20040328_072606_raw.mb56.gz 116.34MB Simrad multibeam vendor format
0568_20040328_075503_raw.mb56.gz 81.54MB Simrad multibeam vendor format
0569_20040328_081517_raw.mb56.gz 161.71MB Simrad multibeam vendor format
0570_20040328_085941_raw.mb56.gz 115.04MB Simrad multibeam vendor format
0571_20040328_092819_raw.mb56.gz 108.77MB Simrad multibeam vendor format
0572_20040328_100021_raw.mb56.gz 56.25MB Simrad multibeam vendor format
0573_20040328_101617_raw.mb56.gz 54.83MB Simrad multibeam vendor format
0574_20040328_112844_raw.mb56.gz 153.40MB Simrad multibeam vendor format
0575_20040328_115922_raw.mb56.gz 138.41MB Simrad multibeam vendor format
0576_20040328_123041_raw.mb56.gz 138.18MB Simrad multibeam vendor format
0577_20040328_130200_raw.mb56.gz 146.35MB Simrad multibeam vendor format
0578_20040328_133352_raw.mb56.gz 164.51MB Simrad multibeam vendor format
0579_20040328_145734_raw.mb56.gz 106.13MB Simrad multibeam vendor format
0580_20040328_153552_raw.mb56.gz 73.33MB Simrad multibeam vendor format
0581_20040328_155428_raw.mb56.gz 153.87MB Simrad multibeam vendor format
0582_20040328_162711_raw.mb56.gz 61.92MB Simrad multibeam vendor format
0583_20040328_164216_raw.mb56.gz 79.24MB Simrad multibeam vendor format
0584_20040328_170153_raw.mb56.gz 26.08MB Simrad multibeam vendor format
0585_20040328_171349_raw.mb56.gz 61.95MB Simrad multibeam vendor format
0586_20040328_173209_raw.mb56.gz 51.76MB Simrad multibeam vendor format
0587_20040328_174751_raw.mb56.gz 28.67MB Simrad multibeam vendor format
0588_20040328_180022_raw.mb56.gz 39.58MB Simrad multibeam vendor format
0589_20040328_181330_raw.mb56.gz 48.98MB Simrad multibeam vendor format
0590_20040328_183641_raw.mb56.gz 156.09MB Simrad multibeam vendor format
0591_20040328_192147_raw.mb56.gz 97.23MB Simrad multibeam vendor format
0592_20040328_194830_raw.mb56.gz 117.43MB Simrad multibeam vendor format
0593_20040329_052759_raw.mb56.gz 71.09MB Simrad multibeam vendor format
0594_20040329_054858_raw.mb56.gz 107.14MB Simrad multibeam vendor format
0595_20040329_062810_raw.mb56.gz 115.08MB Simrad multibeam vendor format
0596_20040329_071258_raw.mb56.gz 101.80MB Simrad multibeam vendor format
0597_20040329_073908_raw.mb56.gz 341.26MB Simrad multibeam vendor format
0598_20040329_090955_raw.mb56.gz 143.61MB Simrad multibeam vendor format
0599_20040329_095617_raw.mb56.gz 66.60MB Simrad multibeam vendor format
0600_20040329_102129_raw.mb56.gz 11.84MB Simrad multibeam vendor format
0601_20040329_102705_raw.mb56.gz 39.32MB Simrad multibeam vendor format
0602_20040329_104025_raw.mb56.gz 50.17MB Simrad multibeam vendor format
0603_20040329_105323_raw.mb56.gz 112.01MB Simrad multibeam vendor format
0604_20040329_111741_raw.mb56.gz 93.54MB Simrad multibeam vendor format
0605_20040329_113939_raw.mb56.gz 95.43MB Simrad multibeam vendor format
0606_20040329_120630_raw.mb56.gz 72.11MB Simrad multibeam vendor format
0607_20040329_122554_raw.mb56.gz 65.92MB Simrad multibeam vendor format
0608_20040329_140619_raw.mb56.gz 46.37MB Simrad multibeam vendor format
0609_20040329_160212_raw.mb56.gz 101.18MB Simrad multibeam vendor format
0610_20040329_163502_raw.mb56.gz 164.80MB Simrad multibeam vendor format
0611_20040329_170425_raw.mb56.gz 116.06MB Simrad multibeam vendor format
0612_20040329_172336_raw.mb56.gz 113.72MB Simrad multibeam vendor format
0613_20040329_174221_raw.mb56.gz 247.45MB Simrad multibeam vendor format
0614_20040329_182858_raw.mb56.gz 66.65MB Simrad multibeam vendor format
0615_20040329_184212_raw.mb56.gz 76.71MB Simrad multibeam vendor format
0616_20040329_185704_raw.mb56.gz 87.99MB Simrad multibeam vendor format
0617_20040329_191253_raw.mb56.gz 91.31MB Simrad multibeam vendor format
0618_20040329_193421_raw.mb56.gz 42.01MB Simrad multibeam vendor format
0619_20040329_194422_raw.mb56.gz 48.87MB Simrad multibeam vendor format
0620_20040329_195642_raw.mb56.gz 102.39MB Simrad multibeam vendor format
0621_20040329_202256_raw.mb56.gz 52.60MB Simrad multibeam vendor format
0622_20040330_120005_raw.mb56.gz 54.15MB Simrad multibeam vendor format
0623_20040330_122108_raw.mb56.gz 58.92MB Simrad multibeam vendor format
0624_20040330_124329_raw.mb56.gz 3.69MB Simrad multibeam vendor format
0625_20040330_124652_raw.mb56.gz 16.86MB Simrad multibeam vendor format
0626_20040330_125415_raw.mb56.gz 26.03MB Simrad multibeam vendor format
0627_20040330_140120_raw.mb56.gz 71.61MB Simrad multibeam vendor format
0628_20040330_142446_raw.mb56.gz 64.31MB Simrad multibeam vendor format
0629_20040330_144518_raw.mb56.gz 37.53MB Simrad multibeam vendor format
0630_20040330_145811_raw.mb56.gz 50.81MB Simrad multibeam vendor format
0631_20040330_151745_raw.mb56.gz 78.89MB Simrad multibeam vendor format
0632_20040330_155035_raw.mb56.gz 44.29MB Simrad multibeam vendor format
0633_20040330_160950_raw.mb56.gz 74.35MB Simrad multibeam vendor format
0634_20040330_164202_raw.mb56.gz 90.85MB Simrad multibeam vendor format
0635_20040330_171856_raw.mb56.gz 56.82MB Simrad multibeam vendor format
0636_20040330_174248_raw.mb56.gz 105.95MB Simrad multibeam vendor format
0637_20040330_181138_raw.mb56.gz 21.35MB Simrad multibeam vendor format
0638_20040330_182033_raw.mb56.gz 26.97MB Simrad multibeam vendor format
0639_20040330_183805_raw.mb56.gz 20.57MB Simrad multibeam vendor format
0640_20040330_185927_raw.mb56.gz 81.67MB Simrad multibeam vendor format
0641_20040330_193156_raw.mb56.gz 40.60MB Simrad multibeam vendor format
0642_20040331_054240_raw.mb56.gz 40.03MB Simrad multibeam vendor format
0643_20040331_060154_raw.mb56.gz 66.55MB Simrad multibeam vendor format
0644_20040331_063156_raw.mb56.gz 50.07MB Simrad multibeam vendor format
0645_20040331_065447_raw.mb56.gz 48.91MB Simrad multibeam vendor format
0646_20040331_071754_raw.mb56.gz 75.57MB Simrad multibeam vendor format
0647_20040331_073835_raw.mb56.gz 4.31MB Simrad multibeam vendor format
0648_20040331_075838_raw.mb56.gz 61.07MB Simrad multibeam vendor format
0649_20040331_081500_raw.mb56.gz 47.20MB Simrad multibeam vendor format

Metadata Files: 1

Files File Size Description
CON04_01_Multibeam.xml NGDC created ISO metadata